Time,TemperatureF,DewpointF,PressureIn,WindDirection,WindDirectionDegrees,WindSpeedMPH,WindSpeedGustMPH,Humidity,HourlyPrecipIn,Conditions,Clouds,dailyrainin,SoftwareType,DateUTC
2013-01-08 00:05:00,28.7,23.0,30.42,NW,305,0.0,1.0,79,0.00,,,0.00,Wunderground v.1.13,2013-01-08 05:05:00,
2013-01-08 00:15:00,28.4,23.0,30.41,NW,305,0.0,1.0,80,0.00,,,0.00,Wunderground v.1.13,2013-01-08 05:15:00,
2013-01-08 00:20:00,28.4,23.0,30.42,NW,305,0.0,1.0,80,0.00,,,0.00,Wunderground v.1.13,2013-01-08 05:20:00,
2013-01-08 00:30:00,28.2,22.8,30.42,NW,305,0.0,1.0,80,0.00,,,0.00,Wunderground v.1.13,2013-01-08 05:30:00,
2013-01-08 00:35:00,28.2,23.1,30.41,NW,305,0.0,1.0,81,0.00,,,0.00,Wunderground v.1.13,2013-01-08 05:35:00,
2013-01-08 00:40:00,28.1,23.0,30.41,NW,306,0.0,1.0,81,0.00,,,0.00,Wunderground v.1.13,2013-01-08 05:40:00,
2013-01-08 00:50:00,28.1,23.0,30.42,NW,305,0.0,1.0,81,0.00,,,0.00,Wunderground v.1.13,2013-01-08 05:50:00,
2013-01-08 00:55:00,27.9,22.8,30.42,NW,305,0.0,1.0,81,0.00,,,0.00,Wunderground v.1.13,2013-01-08 05:55:00,
2013-01-08 01:00:00,27.9,22.8,30.42,NW,305,0.0,1.0,81,0.00,,,0.00,Wunderground v.1.13,2013-01-08 06:00:00,
2013-01-08 01:10:00,27.8,23.0,30.42,NW,305,0.0,1.0,82,0.00,,,0.00,Wunderground v.1.13,2013-01-08 06:10:00,
2013-01-08 01:15:00,27.8,23.0,30.42,NW,305,0.0,1.0,82,0.00,,,0.00,Wunderground v.1.13,2013-01-08 06:15:00,
2013-01-08 01:25:00,27.5,22.7,30.41,NW,305,0.0,1.0,82,0.00,,,0.00,Wunderground v.1.13,2013-01-08 06:25:00,
2013-01-08 01:30:00,27.5,22.7,30.42,NW,306,0.0,1.0,82,0.00,,,0.00,Wunderground v.1.13,2013-01-08 06:30:00,
2013-01-08 01:35:00,27.3,22.5,30.41,NW,305,0.0,1.0,82,0.00,,,0.00,Wunderground v.1.13,2013-01-08 06:35:00,
2013-01-08 01:45:00,27.3,22.8,30.42,NW,305,0.0,1.0,83,0.00,,,0.00,Wunderground v.1.13,2013-01-08 06:45:00,
2013-01-08 01:50:00,27.2,22.7,30.42,NW,306,0.0,0.0,83,0.00,,,0.00,Wunderground v.1.13,2013-01-08 06:50:00,
2013-01-08 01:55:00,27.2,22.7,30.42,NW,305,0.0,0.0,83,0.00,,,0.00,Wunderground v.1.13,2013-01-08 06:55:00,
2013-01-08 02:00:00,27.2,22.7,30.42,NW,305,0.0,0.0,83,0.00,,,0.00,Wunderground v.1.13,2013-01-08 07:00:00,
2013-01-08 02:10:00,27.2,22.7,30.42,NW,305,0.0,0.0,83,0.00,,,0.00,Wunderground v.1.13,2013-01-08 07:10:00,
2013-01-08 02:15:00,27.2,23.0,30.42,NW,305,0.0,0.0,84,0.00,,,0.00,Wunderground v.1.13,2013-01-08 07:15:00,
2013-01-08 02:20:00,27.2,23.0,30.42,NW,305,0.0,1.0,84,0.00,,,0.00,Wunderground v.1.13,2013-01-08 07:20:00,
2013-01-08 02:25:00,27.2,23.0,30.41,NW,305,0.0,1.0,84,0.00,,,0.00,Wunderground v.1.13,2013-01-08 07:25:00,
2013-01-08 02:30:00,27.0,22.8,30.41,NW,305,0.0,1.0,84,0.00,,,0.00,Wunderground v.1.13,2013-01-08 07:30:00,
2013-01-08 02:40:00,26.9,22.7,30.41,NW,305,0.0,1.0,84,0.00,,,0.00,Wunderground v.1.13,2013-01-08 07:40:00,
2013-01-08 02:45:00,26.7,22.5,30.41,NW,305,0.0,1.0,84,0.00,,,0.00,Wunderground v.1.13,2013-01-08 07:45:00,
2013-01-08 02:50:00,26.7,22.5,30.41,NW,305,0.0,0.0,84,0.00,,,0.00,Wunderground v.1.13,2013-01-08 07:50:00,
2013-01-08 03:00:00,26.7,22.8,30.41,NW,305,0.0,0.0,85,0.00,,,0.00,Wunderground v.1.13,2013-01-08 08:00:00,
2013-01-08 03:10:00,26.6,22.7,30.40,NW,305,0.0,1.0,85,0.00,,,0.00,Wunderground v.1.13,2013-01-08 08:10:00,
2013-01-08 03:15:00,26.6,22.7,30.41,NW,305,0.0,1.0,85,0.00,,,0.00,Wunderground v.1.13,2013-01-08 08:15:00,
2013-01-08 03:20:00,26.6,22.7,30.40,NW,305,0.0,0.0,85,0.00,,,0.00,Wunderground v.1.13,2013-01-08 08:20:00,
2013-01-08 03:30:00,26.6,22.7,30.40,NW,306,0.0,0.0,85,0.00,,,0.00,Wunderground v.1.13,2013-01-08 08:30:00,
2013-01-08 03:35:00,26.6,22.7,30.40,NW,305,0.0,1.0,85,0.00,,,0.00,Wunderground v.1.13,2013-01-08 08:35:00,
2013-01-08 03:40:00,26.6,22.7,30.40,NW,305,0.0,1.0,85,0.00,,,0.00,Wunderground v.1.13,2013-01-08 08:40:00,
2013-01-08 03:50:00,26.7,23.1,30.40,NW,305,0.0,1.0,86,0.00,,,0.00,Wunderground v.1.13,2013-01-08 08:50:00,
2013-01-08 03:55:00,27.0,23.4,30.40,NW,305,0.0,1.0,86,0.00,,,0.00,Wunderground v.1.13,2013-01-08 08:55:00,
2013-01-08 04:00:00,27.0,23.1,30.39,NW,305,0.0,1.0,85,0.00,,,0.00,Wunderground v.1.13,2013-01-08 09:00:00,
2013-01-08 04:10:00,26.9,23.0,30.39,NW,305,0.0,1.0,85,0.00,,,0.00,Wunderground v.1.13,2013-01-08 09:10:00,
2013-01-08 04:15:00,26.9,23.0,30.39,NW,305,0.0,1.0,85,0.00,,,0.00,Wunderground v.1.13,2013-01-08 09:15:00,
2013-01-08 04:20:00,26.7,22.8,30.39,NW,306,0.0,0.0,85,0.00,,,0.00,Wunderground v.1.13,2013-01-08 09:20:00,
2013-01-08 04:30:00,26.7,22.8,30.39,NW,305,0.0,0.0,85,0.00,,,0.00,Wunderground v.1.13,2013-01-08 09:30:00,
2013-01-08 04:35:00,26.7,23.1,30.39,NW,305,0.0,2.0,86,0.00,,,0.00,Wunderground v.1.13,2013-01-08 09:35:00,
2013-01-08 04:40:00,26.7,23.1,30.39,NW,305,0.0,2.0,86,0.00,,,0.00,Wunderground v.1.13,2013-01-08 09:40:00,
2013-01-08 04:45:00,27.0,23.4,30.39,NW,305,0.0,2.0,86,0.00,,,0.00,Wunderground v.1.13,2013-01-08 09:45:00,
2013-01-08 04:55:00,27.5,23.9,30.39,NW,305,0.0,1.0,86,0.00,,,0.00,Wunderground v.1.13,2013-01-08 09:55:00,
2013-01-08 05:00:00,27.8,23.9,30.39,NW,305,0.0,1.0,85,0.00,,,0.00,Wunderground v.1.13,2013-01-08 10:00:00,
2013-01-08 05:05:00,27.9,24.0,30.39,NW,305,0.0,1.0,85,0.00,,,0.00,Wunderground v.1.13,2013-01-08 10:05:00,
2013-01-08 05:15:00,28.2,24.0,30.39,NW,305,0.0,1.0,84,0.00,,,0.00,Wunderground v.1.13,2013-01-08 10:15:00,
2013-01-08 05:25:00,28.4,23.9,30.40,NW,305,0.0,2.0,83,0.00,,,0.00,Wunderground v.1.13,2013-01-08 10:25:00,
2013-01-08 05:30:00,28.4,23.9,30.40,NW,305,0.0,2.0,83,0.00,,,0.00,Wunderground v.1.13,2013-01-08 10:30:00,
2013-01-08 05:35:00,28.7,24.2,30.40,WNW,290,0.0,3.0,83,0.00,,,0.00,Wunderground v.1.13,2013-01-08 10:35:00,
2013-01-08 05:45:00,28.8,24.0,30.41,WNW,290,0.0,3.0,82,0.00,,,0.00,Wunderground v.1.13,2013-01-08 10:45:00,
2013-01-08 05:50:00,29.0,24.2,30.41,WNW,290,0.0,3.0,82,0.00,,,0.00,Wunderground v.1.13,2013-01-08 10:50:00,
2013-01-08 05:55:00,29.0,23.9,30.41,WNW,290,0.0,3.0,81,0.00,,,0.00,Wunderground v.1.13,2013-01-08 10:55:00,
2013-01-08 06:00:00,29.0,23.9,30.41,WNW,282,0.0,3.0,81,0.00,,,0.00,Wunderground v.1.13,2013-01-08 11:00:00,
2013-01-08 06:10:00,29.0,23.9,30.41,WNW,282,0.0,4.0,81,0.00,,,0.00,Wunderground v.1.13,2013-01-08 11:10:00,
2013-01-08 06:15:00,29.0,23.9,30.41,WNW,282,0.0,4.0,81,0.00,,,0.00,Wunderground v.1.13,2013-01-08 11:15:00,
2013-01-08 06:20:00,29.1,24.0,30.42,WNW,282,0.0,2.0,81,0.00,,,0.00,Wunderground v.1.13,2013-01-08 11:20:00,
2013-01-08 06:25:00,29.1,23.7,30.42,WNW,282,0.0,2.0,80,0.00,,,0.00,Wunderground v.1.13,2013-01-08 11:25:00,
2013-01-08 06:35:00,28.8,23.4,30.43,WNW,282,0.0,3.0,80,0.00,,,0.00,Wunderground v.1.13,2013-01-08 11:35:00,
2013-01-08 06:40:00,28.7,23.6,30.43,WNW,282,0.0,3.0,81,0.00,,,0.00,Wunderground v.1.13,2013-01-08 11:40:00,
2013-01-08 06:45:00,28.7,23.6,30.42,WNW,282,0.0,3.0,81,0.00,,,0.00,Wunderground v.1.13,2013-01-08 11:45:00,
2013-01-08 06:50:00,28.7,23.6,30.43,WNW,282,0.0,2.0,81,0.00,,,0.00,Wunderground v.1.13,2013-01-08 11:50:00,
2013-01-08 07:00:00,29.0,23.9,30.43,WNW,282,0.0,2.0,81,0.00,,,0.00,Wunderground v.1.13,2013-01-08 12:00:00,
2013-01-08 07:05:00,29.1,24.0,30.43,WNW,282,0.0,3.0,81,0.00,,,0.00,Wunderground v.1.13,2013-01-08 12:05:00,
2013-01-08 07:10:00,29.3,24.2,30.43,WNW,282,0.0,3.0,81,0.00,,,0.00,Wunderground v.1.13,2013-01-08 12:10:00,
2013-01-08 07:20:00,29.7,24.6,30.43,WNW,282,0.0,4.0,81,0.00,,,0.00,Wunderground v.1.13,2013-01-08 12:20:00,
2013-01-08 07:25:00,29.7,24.6,30.43,WNW,282,0.0,4.0,81,0.00,,,0.00,Wunderground v.1.13,2013-01-08 12:25:00,
2013-01-08 07:30:00,29.8,24.7,30.42,WNW,282,0.0,4.0,81,0.00,,,0.00,Wunderground v.1.13,2013-01-08 12:30:00,
2013-01-08 07:40:00,30.0,24.9,30.42,WNW,282,0.0,2.0,81,0.00,,,0.00,Wunderground v.1.13,2013-01-08 12:40:00,
2013-01-08 07:50:00,30.3,25.5,30.43,WNW,282,0.0,1.0,82,0.00,,,0.00,Wunderground v.1.13,2013-01-08 12:50:00,
2013-01-08 08:00:00,30.9,26.1,30.44,WNW,282,0.0,1.0,82,0.00,,,0.00,Wunderground v.1.13,2013-01-08 13:00:00,
2013-01-08 08:05:00,31.2,26.3,30.44,WNW,282,0.0,1.0,82,0.00,,,0.00,Wunderground v.1.13,2013-01-08 13:05:00,
2013-01-08 08:10:00,31.3,26.4,30.44,WNW,282,0.0,1.0,82,0.00,,,0.00,Wunderground v.1.13,2013-01-08 13:10:00,
2013-01-08 08:20:00,32.5,27.9,30.44,WNW,282,0.0,2.0,83,0.00,,,0.00,Wunderground v.1.13,2013-01-08 13:20:00,
2013-01-08 08:25:00,33.1,28.5,30.45,West,271,1.0,1.0,83,0.00,,,0.00,Wunderground v.1.13,2013-01-08 13:25:00,
2013-01-08 08:30:00,33.7,29.1,30.45,West,271,0.0,2.0,83,0.00,,,0.00,Wunderground v.1.13,2013-01-08 13:30:00,
2013-01-08 08:40:00,34.7,29.8,30.45,WSW,254,1.0,5.0,82,0.00,,,0.00,Wunderground v.1.13,2013-01-08 13:40:00,
2013-01-08 08:45:00,35.5,30.5,30.45,WSW,246,1.0,5.0,82,0.00,,,0.00,Wunderground v.1.13,2013-01-08 13:45:00,
2013-01-08 08:50:00,36.0,30.7,30.45,WSW,246,1.0,1.0,81,0.00,,,0.00,Wunderground v.1.13,2013-01-08 13:50:00,
2013-01-08 09:00:00,36.9,30.7,30.45,West,261,1.0,1.0,78,0.00,,,0.00,Wunderground v.1.13,2013-01-08 14:00:00,
2013-01-08 09:05:00,37.3,30.7,30.45,WSW,244,1.0,6.0,77,0.00,,,0.00,Wunderground v.1.13,2013-01-08 14:05:00,
2013-01-08 09:10:00,37.8,30.9,30.45,West,263,1.0,1.0,76,0.00,,,0.00,Wunderground v.1.13,2013-01-08 14:10:00,
2013-01-08 09:20:00,38.6,30.4,30.45,WSW,238,2.0,2.0,72,0.00,,,0.00,Wunderground v.1.13,2013-01-08 14:20:00,
2013-01-08 09:25:00,39.1,30.5,30.45,West,275,2.0,2.0,71,0.00,,,0.00,Wunderground v.1.13,2013-01-08 14:25:00,
2013-01-08 09:30:00,39.6,31.0,30.45,West,275,1.0,5.0,71,0.00,,,0.00,Wunderground v.1.13,2013-01-08 14:30:00,
2013-01-08 09:40:00,40.5,30.8,30.45,SW,221,2.0,5.0,68,0.00,,,0.00,Wunderground v.1.13,2013-01-08 14:40:00,
2013-01-08 09:50:00,41.1,30.6,30.45,West,280,2.0,7.0,66,0.00,,,0.00,Wunderground v.1.13,2013-01-08 14:50:00,
2013-01-08 09:55:00,41.3,30.8,30.45,WNW,288,3.0,3.0,66,0.00,,,0.00,Wunderground v.1.13,2013-01-08 14:55:00,
2013-01-08 10:00:00,41.8,30.9,30.45,SSW,201,2.0,7.0,65,0.00,,,0.00,Wunderground v.1.13,2013-01-08 15:00:00,
2013-01-08 10:10:00,42.6,30.9,30.45,West,272,2.0,10.0,63,0.00,,,0.00,Wunderground v.1.13,2013-01-08 15:10:00,
2013-01-08 10:15:00,43.2,31.4,30.45,WSW,238,2.0,10.0,63,0.00,,,0.00,Wunderground v.1.13,2013-01-08 15:15:00,
2013-01-08 10:20:00,43.6,30.6,30.44,SSW,210,2.0,7.0,60,0.00,,,0.00,Wunderground v.1.13,2013-01-08 15:20:00,
2013-01-08 10:25:00,43.9,30.5,30.44,WSW,245,2.0,7.0,59,0.00,,,0.00,Wunderground v.1.13,2013-01-08 15:25:00,
2013-01-08 10:30:00,44.3,30.9,30.44,South,188,2.0,2.0,59,0.00,,,0.00,Wunderground v.1.13,2013-01-08 15:30:00,
2013-01-08 10:40:00,44.8,30.0,30.43,WSW,254,3.0,3.0,56,0.00,,,0.00,Wunderground v.1.13,2013-01-08 15:40:00,
2013-01-08 10:45:00,45.4,29.7,30.43,SW,225,3.0,6.0,54,0.00,,,0.00,Wunderground v.1.13,2013-01-08 15:45:00,
2013-01-08 10:55:00,46.0,29.8,30.43,West,265,3.0,10.0,53,0.00,,,0.00,Wunderground v.1.13,2013-01-08 15:55:00,
2013-01-08 11:05:00,46.8,30.1,30.42,WNW,286,2.0,7.0,52,0.00,,,0.00,Wunderground v.1.13,2013-01-08 16:05:00,
2013-01-08 11:10:00,46.8,29.6,30.41,WSW,246,2.0,2.0,51,0.00,,,0.00,Wunderground v.1.13,2013-01-08 16:10:00,
2013-01-08 11:20:00,47.3,30.1,30.40,SE,144,4.0,12.0,51,0.00,,,0.00,Wunderground v.1.13,2013-01-08 16:20:00,
2013-01-08 11:30:00,47.9,29.6,30.40,WSW,244,3.0,12.0,49,0.00,,,0.00,Wunderground v.1.13,2013-01-08 16:30:00,
2013-01-08 11:35:00,48.0,29.7,30.39,SSW,212,4.0,4.0,49,0.00,,,0.00,Wunderground v.1.13,2013-01-08 16:35:00,
2013-01-08 11:45:00,48.3,30.0,30.38,SW,217,3.0,10.0,49,0.00,,,0.00,Wunderground v.1.13,2013-01-08 16:45:00,
2013-01-08 11:50:00,48.3,30.0,30.38,SSW,207,3.0,11.0,49,0.00,,,0.00,Wunderground v.1.13,2013-01-08 16:50:00,
2013-01-08 11:55:00,48.2,29.9,30.38,SW,236,3.0,11.0,49,0.00,,,0.00,Wunderground v.1.13,2013-01-08 16:55:00,
2013-01-08 12:05:00,48.6,30.3,30.38,West,275,3.0,9.0,49,0.00,,,0.00,Wunderground v.1.13,2013-01-08 17:05:00,
2013-01-08 12:10:00,48.9,30.6,30.38,SW,235,3.0,3.0,49,0.00,,,0.00,Wunderground v.1.13,2013-01-08 17:10:00,
2013-01-08 12:15:00,48.9,30.6,30.38,SW,218,2.0,9.0,49,0.00,,,0.00,Wunderground v.1.13,2013-01-08 17:15:00,
2013-01-08 12:20:00,48.8,30.5,30.38,WSW,237,3.0,12.0,49,0.00,,,0.00,Wunderground v.1.13,2013-01-08 17:20:00,
2013-01-08 12:30:00,48.8,30.5,30.38,West,263,3.0,12.0,49,0.00,,,0.00,Wunderground v.1.13,2013-01-08 17:30:00,
2013-01-08 12:35:00,48.8,30.5,30.38,WSW,247,4.0,4.0,49,0.00,,,0.00,Wunderground v.1.13,2013-01-08 17:35:00,
2013-01-08 12:40:00,48.9,30.6,30.38,West,266,3.0,11.0,49,0.00,,,0.00,Wunderground v.1.13,2013-01-08 17:40:00,
2013-01-08 12:45:00,48.6,30.3,30.37,WSW,250,4.0,11.0,49,0.00,,,0.00,Wunderground v.1.13,2013-01-08 17:45:00,
2013-01-08 12:50:00,48.8,30.5,30.37,West,278,4.0,4.0,49,0.00,,,0.00,Wunderground v.1.13,2013-01-08 17:50:00,
2013-01-08 13:00:00,48.9,31.1,30.37,WSW,254,3.0,12.0,50,0.00,,,0.00,Wunderground v.1.13,2013-01-08 18:00:00,
2013-01-08 13:05:00,48.6,30.8,30.36,WSW,241,3.0,3.0,50,0.00,,,0.00,Wunderground v.1.13,2013-01-08 18:05:00,
2013-01-08 13:15:00,48.8,31.0,30.36,West,267,3.0,12.0,50,0.00,,,0.00,Wunderground v.1.13,2013-01-08 18:15:00,
2013-01-08 13:20:00,48.9,31.1,30.36,SSW,192,3.0,10.0,50,0.00,,,0.00,Wunderground v.1.13,2013-01-08 18:20:00,
2013-01-08 13:25:00,49.2,30.8,30.36,WSW,240,2.0,2.0,49,0.00,,,0.00,Wunderground v.1.13,2013-01-08 18:25:00,
2013-01-08 13:30:00,49.2,30.8,30.36,West,279,3.0,10.0,49,0.00,,,0.00,Wunderground v.1.13,2013-01-08 18:30:00,
2013-01-08 13:40:00,49.6,30.7,30.36,WSW,250,2.0,2.0,48,0.00,,,0.00,Wunderground v.1.13,2013-01-08 18:40:00,
2013-01-08 13:45:00,49.8,30.9,30.36,West,263,2.0,7.0,48,0.00,,,0.00,Wunderground v.1.13,2013-01-08 18:45:00,
2013-01-08 13:50:00,49.8,30.9,30.36,WSW,251,2.0,15.0,48,0.00,,,0.00,Wunderground v.1.13,2013-01-08 18:50:00,
2013-01-08 14:00:00,50.1,31.2,30.36,WSW,254,2.0,2.0,48,0.00,,,0.00,Wunderground v.1.13,2013-01-08 19:00:00,
2013-01-08 14:05:00,49.8,30.9,30.36,NW,306,2.0,2.0,48,0.00,,,0.00,Wunderground v.1.13,2013-01-08 19:05:00,
2013-01-08 14:15:00,49.8,30.9,30.36,WSW,250,2.0,10.0,48,0.00,,,0.00,Wunderground v.1.13,2013-01-08 19:15:00,
2013-01-08 14:20:00,49.6,30.7,30.36,WSW,256,2.0,11.0,48,0.00,,,0.00,Wunderground v.1.13,2013-01-08 19:20:00,
2013-01-08 14:25:00,49.8,31.4,30.36,West,272,2.0,11.0,49,0.00,,,0.00,Wunderground v.1.13,2013-01-08 19:25:00,
2013-01-08 14:30:00,49.9,31.0,30.37,WSW,248,2.0,11.0,48,0.00,,,0.00,Wunderground v.1.13,2013-01-08 19:30:00,
2013-01-08 14:35:00,49.9,31.0,30.37,WNW,287,2.0,7.0,48,0.00,,,0.00,Wunderground v.1.13,2013-01-08 19:35:00,
2013-01-08 14:45:00,49.9,31.0,30.37,WNW,283,3.0,7.0,48,0.00,,,0.00,Wunderground v.1.13,2013-01-08 19:45:00,
2013-01-08 14:50:00,49.8,30.9,30.37,SW,234,4.0,10.0,48,0.00,,,0.00,Wunderground v.1.13,2013-01-08 19:50:00,
2013-01-08 15:00:00,49.6,30.7,30.37,WSW,238,4.0,9.0,48,0.00,,,0.00,Wunderground v.1.13,2013-01-08 20:00:00,
2013-01-08 15:05:00,49.5,30.6,30.37,SW,229,3.0,3.0,48,0.00,,,0.00,Wunderground v.1.13,2013-01-08 20:05:00,
2013-01-08 15:10:00,49.5,30.6,30.37,SW,223,3.0,3.0,48,0.00,,,0.00,Wunderground v.1.13,2013-01-08 20:10:00,
2013-01-08 15:20:00,49.4,31.0,30.37,West,263,2.0,2.0,49,0.00,,,0.00,Wunderground v.1.13,2013-01-08 20:20:00,
2013-01-08 15:25:00,49.4,31.0,30.37,WNW,294,2.0,2.0,49,0.00,,,0.00,Wunderground v.1.13,2013-01-08 20:25:00,
2013-01-08 15:30:00,49.2,30.8,30.37,WSW,251,2.0,9.0,49,0.00,,,0.00,Wunderground v.1.13,2013-01-08 20:30:00,
2013-01-08 15:40:00,48.9,30.6,30.37,WSW,245,3.0,7.0,49,0.00,,,0.00,Wunderground v.1.13,2013-01-08 20:40:00,
2013-01-08 15:45:00,48.8,31.0,30.37,WNW,301,2.0,2.0,50,0.00,,,0.00,Wunderground v.1.13,2013-01-08 20:45:00,
2013-01-08 15:50:00,48.6,30.8,30.38,WSW,238,2.0,2.0,50,0.00,,,0.00,Wunderground v.1.13,2013-01-08 20:50:00,
2013-01-08 15:55:00,48.5,31.2,30.38,West,269,2.0,2.0,51,0.00,,,0.00,Wunderground v.1.13,2013-01-08 20:55:00,
2013-01-08 16:05:00,48.2,30.9,30.38,SW,236,2.0,9.0,51,0.00,,,0.00,Wunderground v.1.13,2013-01-08 21:05:00,
2013-01-08 16:10:00,48.0,31.2,30.38,WSW,252,2.0,9.0,52,0.00,,,0.00,Wunderground v.1.13,2013-01-08 21:10:00,
2013-01-08 16:20:00,47.7,30.9,30.38,WSW,246,2.0,6.0,52,0.00,,,0.00,Wunderground v.1.13,2013-01-08 21:20:00,
2013-01-08 16:25:00,47.4,31.1,30.38,West,274,2.0,6.0,53,0.00,,,0.00,Wunderground v.1.13,2013-01-08 21:25:00,
2013-01-08 16:30:00,47.3,31.5,30.38,WNW,293,3.0,3.0,54,0.00,,,0.00,Wunderground v.1.13,2013-01-08 21:30:00,
2013-01-08 16:40:00,46.7,31.4,30.39,WNW,283,1.0,7.0,55,0.00,,,0.00,Wunderground v.1.13,2013-01-08 21:40:00,
2013-01-08 16:45:00,46.4,31.1,30.38,WSW,252,1.0,7.0,55,0.00,,,0.00,Wunderground v.1.13,2013-01-08 21:45:00,
2013-01-08 16:50:00,46.1,31.3,30.38,WSW,242,1.0,5.0,56,0.00,,,0.00,Wunderground v.1.13,2013-01-08 21:50:00,
2013-01-08 17:00:00,45.7,31.3,30.38,WSW,242,1.0,1.0,57,0.00,,,0.00,Wunderground v.1.13,2013-01-08 22:00:00,
2013-01-08 17:05:00,45.2,31.3,30.39,WSW,242,0.0,5.0,58,0.00,,,0.00,Wunderground v.1.13,2013-01-08 22:05:00,
2013-01-08 17:10:00,44.8,31.3,30.39,WSW,242,0.0,5.0,59,0.00,,,0.00,Wunderground v.1.13,2013-01-08 22:10:00,
2013-01-08 17:20:00,43.6,31.0,30.39,WSW,242,0.0,1.0,61,0.00,,,0.00,Wunderground v.1.13,2013-01-08 22:20:00,
2013-01-08 17:25:00,43.1,30.6,30.39,WSW,242,0.0,1.0,61,0.00,,,0.00,Wunderground v.1.13,2013-01-08 22:25:00,
2013-01-08 17:30:00,42.6,30.5,30.39,WSW,242,0.0,1.0,62,0.00,,,0.00,Wunderground v.1.13,2013-01-08 22:30:00,
2013-01-08 17:35:00,41.9,30.6,30.39,WSW,242,0.0,0.0,64,0.00,,,0.00,Wunderground v.1.13,2013-01-08 22:35:00,
2013-01-08 17:45:00,40.9,30.0,30.39,WSW,242,0.0,0.0,65,0.00,,,0.00,Wunderground v.1.13,2013-01-08 22:45:00,
2013-01-08 17:50:00,40.3,29.8,30.39,WSW,242,0.0,0.0,66,0.00,,,0.00,Wunderground v.1.13,2013-01-08 22:50:00,
2013-01-08 17:55:00,39.9,29.8,30.39,WSW,242,0.0,0.0,67,0.00,,,0.00,Wunderground v.1.13,2013-01-08 22:55:00,
2013-01-08 18:05:00,39.2,29.9,30.39,WSW,242,0.0,1.0,69,0.00,,,0.00,Wunderground v.1.13,2013-01-08 23:05:00,
2013-01-08 18:10:00,38.8,30.2,30.39,WSW,242,0.0,1.0,71,0.00,,,0.00,Wunderground v.1.13,2013-01-08 23:10:00,
2013-01-08 18:15:00,38.5,29.9,30.39,WSW,242,0.0,1.0,71,0.00,,,0.00,Wunderground v.1.13,2013-01-08 23:15:00,
2013-01-08 18:25:00,37.9,30.0,30.39,WSW,242,0.0,0.0,73,0.00,,,0.00,Wunderground v.1.13,2013-01-08 23:25:00,
2013-01-08 18:30:00,37.8,29.9,30.39,WSW,242,0.0,0.0,73,0.00,,,0.00,Wunderground v.1.13,2013-01-08 23:30:00,
2013-01-08 18:35:00,37.6,30.1,30.39,WSW,242,0.0,1.0,74,0.00,,,0.00,Wunderground v.1.13,2013-01-08 23:35:00,
2013-01-08 18:45:00,37.8,30.3,30.39,WSW,242,0.0,1.0,74,0.00,,,0.00,Wunderground v.1.13,2013-01-08 23:45:00,
2013-01-08 18:50:00,37.6,30.1,30.39,WSW,242,0.0,1.0,74,0.00,,,0.00,Wunderground v.1.13,2013-01-08 23:50:00,
2013-01-08 18:55:00,37.3,30.1,30.39,WSW,242,0.0,1.0,75,0.00,,,0.00,Wunderground v.1.13,2013-01-08 23:55:00,
2013-01-08 19:00:00,37.0,29.8,30.39,WSW,242,0.0,1.0,75,0.00,,,0.00,Wunderground v.1.13,2013-01-09 00:00:00,
2013-01-08 19:10:00,36.8,29.9,30.39,WSW,242,0.0,1.0,76,0.00,,,0.00,Wunderground v.1.13,2013-01-09 00:10:00,
2013-01-08 19:15:00,36.5,29.7,30.39,WSW,242,0.0,1.0,76,0.00,,,0.00,Wunderground v.1.13,2013-01-09 00:15:00,
2013-01-08 19:20:00,36.3,29.8,30.39,WSW,242,0.0,1.0,77,0.00,,,0.00,Wunderground v.1.13,2013-01-09 00:20:00,
2013-01-08 19:25:00,36.0,29.5,30.40,WSW,242,0.0,1.0,77,0.00,,,0.00,Wunderground v.1.13,2013-01-09 00:25:00,
2013-01-08 19:35:00,35.8,29.6,30.40,WSW,242,0.0,0.0,78,0.00,,,0.00,Wunderground v.1.13,2013-01-09 00:35:00,
2013-01-08 19:40:00,35.6,29.7,30.40,WSW,242,0.0,0.0,79,0.00,,,0.00,Wunderground v.1.13,2013-01-09 00:40:00,
2013-01-08 19:50:00,35.3,29.4,30.40,WSW,242,0.0,1.0,79,0.00,,,0.00,Wunderground v.1.13,2013-01-09 00:50:00,
2013-01-08 19:55:00,35.0,29.5,30.41,WSW,242,0.0,1.0,80,0.00,,,0.00,Wunderground v.1.13,2013-01-09 00:55:00,
2013-01-08 20:05:00,34.4,28.9,30.41,WSW,242,0.0,0.0,80,0.00,,,0.00,Wunderground v.1.13,2013-01-09 01:05:00,
2013-01-08 20:10:00,34.1,28.9,30.40,WSW,242,0.0,0.0,81,0.00,,,0.00,Wunderground v.1.13,2013-01-09 01:10:00,
2013-01-08 20:15:00,34.0,29.1,30.41,WSW,242,0.0,0.0,82,0.00,,,0.00,Wunderground v.1.13,2013-01-09 01:15:00,
2013-01-08 20:25:00,33.8,28.9,30.40,WSW,242,0.0,0.0,82,0.00,,,0.00,Wunderground v.1.13,2013-01-09 01:25:00,
2013-01-08 20:30:00,33.8,28.9,30.40,WSW,242,0.0,0.0,82,0.00,,,0.00,Wunderground v.1.13,2013-01-09 01:30:00,
2013-01-08 20:40:00,33.8,29.2,30.40,WSW,242,0.0,1.0,83,0.00,,,0.00,Wunderground v.1.13,2013-01-09 01:40:00,
2013-01-08 20:50:00,33.7,29.1,30.40,WSW,242,0.0,0.0,83,0.00,,,0.00,Wunderground v.1.13,2013-01-09 01:50:00,
2013-01-08 20:55:00,33.7,29.1,30.39,WSW,242,0.0,0.0,83,0.00,,,0.00,Wunderground v.1.13,2013-01-09 01:55:00,
2013-01-08 21:00:00,33.5,28.9,30.40,WSW,242,0.0,0.0,83,0.00,,,0.00,Wunderground v.1.13,2013-01-09 02:00:00,
2013-01-08 21:05:00,33.5,28.9,30.39,WSW,242,0.0,0.0,83,0.00,,,0.00,Wunderground v.1.13,2013-01-09 02:05:00,
2013-01-08 21:15:00,33.5,29.2,30.39,WSW,242,0.0,0.0,84,0.00,,,0.00,Wunderground v.1.13,2013-01-09 02:15:00,
2013-01-08 21:20:00,33.5,29.2,30.39,WSW,242,0.0,1.0,84,0.00,,,0.00,Wunderground v.1.13,2013-01-09 02:20:00,
2013-01-08 21:25:00,33.5,29.2,30.39,WSW,242,0.0,1.0,84,0.00,,,0.00,Wunderground v.1.13,2013-01-09 02:25:00,
2013-01-08 21:30:00,33.7,29.4,30.39,WSW,242,0.0,1.0,84,0.00,,,0.00,Wunderground v.1.13,2013-01-09 02:30:00,
2013-01-08 21:40:00,33.7,29.4,30.39,WSW,242,0.0,0.0,84,0.00,,,0.00,Wunderground v.1.13,2013-01-09 02:40:00,
2013-01-08 21:45:00,33.7,29.4,30.39,WSW,242,0.0,0.0,84,0.00,,,0.00,Wunderground v.1.13,2013-01-09 02:45:00,
2013-01-08 21:50:00,33.5,29.2,30.39,WSW,242,0.0,0.0,84,0.00,,,0.00,Wunderground v.1.13,2013-01-09 02:50:00,
2013-01-08 21:55:00,33.4,29.1,30.39,WSW,242,0.0,0.0,84,0.00,,,0.00,Wunderground v.1.13,2013-01-09 02:55:00,
2013-01-08 22:05:00,32.9,28.9,30.40,WSW,242,0.0,0.0,85,0.00,,,0.00,Wunderground v.1.13,2013-01-09 03:05:00,
2013-01-08 22:10:00,32.8,28.8,30.40,WSW,242,0.0,0.0,85,0.00,,,0.00,Wunderground v.1.13,2013-01-09 03:10:00,
2013-01-08 22:20:00,32.5,28.5,30.40,WSW,242,0.0,0.0,85,0.00,,,0.00,Wunderground v.1.13,2013-01-09 03:20:00,
2013-01-08 22:25:00,32.4,28.4,30.40,WSW,242,0.0,0.0,85,0.00,,,0.00,Wunderground v.1.13,2013-01-09 03:25:00,
2013-01-08 22:30:00,32.2,28.2,30.40,WSW,242,0.0,0.0,85,0.00,,,0.00,Wunderground v.1.13,2013-01-09 03:30:00,
2013-01-08 22:35:00,32.1,28.1,30.40,WSW,242,0.0,0.0,85,0.00,,,0.00,Wunderground v.1.13,2013-01-09 03:35:00,
2013-01-08 22:45:00,31.8,28.1,30.41,WSW,242,0.0,0.0,86,0.00,,,0.00,Wunderground v.1.13,2013-01-09 03:45:00,
2013-01-08 22:50:00,31.6,27.9,30.41,WSW,242,0.0,0.0,86,0.00,,,0.00,Wunderground v.1.13,2013-01-09 03:50:00,
2013-01-08 22:55:00,31.6,27.9,30.41,WSW,242,0.0,0.0,86,0.00,,,0.00,Wunderground v.1.13,2013-01-09 03:55:00,
2013-01-08 23:05:00,31.8,28.4,30.41,WSW,242,0.0,0.0,87,0.00,,,0.00,Wunderground v.1.13,2013-01-09 04:05:00,
2013-01-08 23:10:00,31.9,28.5,30.41,WSW,242,0.0,0.0,87,0.00,,,0.00,Wunderground v.1.13,2013-01-09 04:10:00,
2013-01-08 23:15:00,32.1,28.7,30.41,WSW,242,0.0,0.0,87,0.00,,,0.00,Wunderground v.1.13,2013-01-09 04:15:00,
2013-01-08 23:25:00,32.5,29.1,30.41,WSW,242,0.0,0.0,87,0.00,,,0.00,Wunderground v.1.13,2013-01-09 04:25:00,
2013-01-08 23:30:00,32.7,29.3,30.41,WSW,242,0.0,0.0,87,0.00,,,0.00,Wunderground v.1.13,2013-01-09 04:30:00,
2013-01-08 23:35:00,32.9,29.7,30.41,WSW,242,0.0,0.0,88,0.00,,,0.00,Wunderground v.1.13,2013-01-09 04:35:00,
2013-01-08 23:40:00,33.2,30.0,30.41,WSW,242,0.0,0.0,88,0.00,,,0.00,Wunderground v.1.13,2013-01-09 04:40:00,
2013-01-08 23:50:00,33.7,30.5,30.40,WSW,242,0.0,0.0,88,0.00,,,0.00,Wunderground v.1.13,2013-01-09 04:50:00,
2013-01-08 23:55:00,34.1,30.9,30.41,WSW,242,0.0,0.0,88,0.00,,,0.00,Wunderground v.1.13,2013-01-09 04:55:00,